DW9033 Weather Reports


Display with metric or nautical units.
time (UTC)temp
F
wind
direction
speed
MPH
gust
MPH
rain 1hr
in
rain 24hr
in
rain mn
in
humidity
%
barometer
mb
20260504011507 55 199 0.0 0.0 0.00 0.00 0.00 62 1015.4
20260504010006 56 199 0.0 0.0 0.00 0.00 0.00 60 1015.3
20260504004507 58 199 0.0 0.0 0.00 0.00 0.00 56 1015.2
20260504003005 60 155 0.0 0.0 0.00 0.00 0.00 52 1015.1
20260504001506 63 154 0.0 0.0 0.00 0.00 0.00 47 1015.0
20260504000138 65 155 0.0 1.0 0.00 0.00 0.00 43 1014.9
20260503234552 68 121 0.0 4.0 0.00 0.00 0.00 39 1014.8
20260503233051 69 155 0.0 5.0 0.00 0.00 0.00 37 1014.9
20260503231551 70 165 0.0 7.0 0.00 0.00 0.00 38 1014.9
20260503230054 70 176 0.0 6.0 0.00 0.00 0.00 36 1014.9
20260503224549 70 175 1.0 7.0 0.00 0.00 0.00 35 1015.0
20260503223049 71 163 2.0 6.0 0.00 0.00 0.00 34 1015.0
20260503221547 71 155 1.0 7.0 0.00 0.00 0.00 35 1015.1
20260503220046 70 150 1.0 8.0 0.00 0.00 0.00 36 1015.1
20260503214534 71 130 0.0 4.0 0.00 0.00 0.00 34 1015.2
20260503213033 70 151 2.0 9.0 0.00 0.00 0.00 35 1015.3
20260503211531 71 140 4.0 10.0 0.00 0.00 0.00 34 1015.4
20260503210030 70 271 1.0 9.0 0.00 0.00 0.00 36 1015.4
20260503204528 70 267 1.0 6.0 0.00 0.00 0.00 35 1015.6
20260503203033 70 281 4.0 11.0 0.00 0.00 0.00 32 1015.7
20260503201526 70 186 3.0 9.0 0.00 0.00 0.00 32 1016.1
20260503200025 70 200 2.0 7.0 0.00 0.00 0.00 33 1016.4
20260503194512 70 277 3.0 7.0 0.00 0.00 0.00 32 1016.6
20260503193011 69 270 3.0 9.0 0.00 0.00 0.00 32 1016.9
20260503191609 68 183 2.0 11.0 0.00 0.00 0.00 34 1017.1
20260503190007 68 242 2.0 7.0 0.00 0.00 0.00 35 1017.3
20260503184512 67 273 5.0 9.0 0.00 0.00 0.00 35 1017.4
20260503183006 68 240 2.0 7.0 0.00 0.00 0.00 36 1017.6
20260503181504 67 302 3.0 8.0 0.00 0.00 0.00 35 1017.7
20260503180003 66 163 4.0 7.0 0.00 0.00 0.00 36 1018.1
20260503174544 66 318 2.0 9.0 0.00 0.00 0.00 36 1018.1
20260503173044 67 178 2.0 8.0 0.00 0.00 0.00 33 1018.4
20260503171522 65 290 2.0 7.0 0.00 0.00 0.00 38 1018.7
20260503081519 45 249 0.0 1.0 0.00 0.00 0.00 72 1016.8
20260503071513 45 271 0.0 1.0 0.00 0.00 0.00 73 1016.1
20260503054635 46 288 0.0 1.0 0.00 0.00 0.00 68 1015.8
20260503053038 47 288 0.0 1.0 0.00 0.00 0.00 67 1015.9
20260503051533 46 313 0.0 1.0 0.00 0.00 0.00 70 1015.9
20260503050036 45 244 0.0 0.0 0.00 0.00 0.00 74 1015.8
20260503044544 45 244 0.0 0.0 0.00 0.00 0.00 73 1015.8
20260503043042 45 244 0.0 0.0 0.00 0.00 0.00 72 1015.8
20260503041514 46 244 0.0 0.0 0.00 0.00 0.00 72 1015.7
20260503040012 47 244 0.0 0.0 0.00 0.00 0.00 68 1015.4
20260503034508 47 244 0.0 1.0 0.00 0.00 0.00 65 1015.3
20260503033005 48 244 0.0 1.0 0.00 0.00 0.00 64 1015.2
20260503031502 49 226 0.0 1.0 0.00 0.00 0.00 61 1015.0
20260503024555 52 256 0.0 2.0 0.00 0.00 0.00 53 1014.6
20260503023104 53 247 0.0 3.0 0.00 0.00 0.00 49 1014.5
20260503021557 52 291 1.0 6.0 0.00 0.00 0.00 50 1014.3
20260503020041 53 315 0.0 0.0 0.00 0.00 0.00 49 1014.2
20260503014534 55 315 0.0 2.0 0.00 0.00 0.00 44 1013.8
20260503013036 56 303 0.0 3.0 0.00 0.00 0.00 42 1013.5